Regional Weather Roundup
Issued by NWS

Home | Current Version | Previous Version | Text Only | Print | Product List | Glossary Off
Versions: 1 2 3 4 5 6 7 8 9 10 11 12 13 14 15 16 17 18 19 20 21 22 23 24 25 26 27 28 29 30 31 32 33 34 35 36 37 38 39 40 41 42 43 44 45 46 47 48 49 50

739
ASUS43 KOAX 240810
RWRNE

WEATHER ROUNDUP FOR NEBRASKA
NATIONAL WEATHER SERVICE OMAHA NE
300 AM CDT SUN JUL 24 2016

NOTES: SATELLITE DATA IS BEING USED TO AUGMENT CLOUD COVER ABOVE
       12000 FEET.
       "FAIR" INDICATES FEW OR NO CLOUDS BELOW 12,000 FEET WITH NO
       SIGNIFICANT WEATHER AND/OR OBSTRUCTIONS TO VISIBILITY.

  * THESE STATIONS DO NOT REPORT WEATHER SUCH AS RAIN...SNOW OR FOG.

NEZ001>004-019>022-054>056-240900-
NEBRASKA PANHANDLE

CITY           SKY/WX    TMP DP  RH WIND       PRES   REMARKS
SCOTTSBLUFF    CLEAR     65  56  72 E7        30.07S
ALLIANCE       CLEAR     62  56  80 CALM      30.09S
CHADRON        CLEAR     61  52  72 CALM      30.07R
SIDNEY         PTCLDY    66  54  65 NE9       30.08F
$$

NEZ057>060-069>072-079>082-240900-
SOUTHWEST NEBRASKA

CITY           SKY/WX    TMP DP  RH WIND       PRES   REMARKS
NORTH PLATTE   CLOUDY    71  58  63 CALM      30.01R
IMPERIAL       CLOUDY    76  59  55 E9        30.00F
LEXINGTON      PTCLDY    73  62  67 N13       29.95F
MCCOOK         CLOUDY    74  63  68 N8        29.96S
OGALLALA       CLOUDY    76  58  54 NE8       30.04F
$$

NEZ005>010-023>029-035>040-094-240900-
NORTH CENTRAL NEBRASKA

CITY           SKY/WX    TMP DP  RH WIND       PRES   REMARKS
VALENTINE      CLOUDY    65  56  72 NE5       30.00F
AINSWORTH      MOCLDY    65  60  82 W3        30.01S
BROKEN BOW     CLEAR     71  60  68 N8        29.98R
O`NEILL        PTCLDY    69  64  84 N8        29.97S
ORD            CLEAR     72  63  73 N7        29.95R
THEDFORD       CLOUDY    70  58  65 CALM      30.03S
$$

NEZ041-046>049-061>064-073>077-083>087-240900-
SOUTH CENTRAL NEBRASKA

CITY           SKY/WX    TMP DP  RH WIND       PRES   REMARKS
GRAND ISLAND   CLEAR     74  70  87 NE6       29.92R
AURORA         CLEAR     76  73  90 N8        29.91R
HASTINGS       CLEAR     77  70  79 N12       29.92R
HEBRON         CLEAR     71  68  91 CALM      29.87S
HOLDREGE       PTCLDY    72  66  81 N9        29.93S
KEARNEY *      CLEAR     73  64  73 N12       29.94S
YORK           CLEAR     77  73  88 N16       29.89S
$$

NEZ011>018-030>034-042>045-240900-
NORTHEAST NEBRASKA

CITY           SKY/WX    TMP DP  RH WIND       PRES   REMARKS
NORFOLK        CLEAR     75  67  76 NW8       29.91R
ALBION         CLEAR     75  69  79 N10       29.93R
BLAIR          CLEAR     77  73  87 S6        29.84S
FREMONT        CLEAR     77  72  84 W6        29.86R
TEKAMAH        CLEAR     76  73  91 W6        29.84R
WAYNE          CLEAR     76  68  76 N9        29.90R
$$

NEZ050>053-065>068-078-088>093-240900-
SOUTHEAST NEBRASKA

CITY           SKY/WX    TMP DP  RH WIND       PRES   REMARKS
LINCOLN        CLEAR     77  72  84 S5        29.85S
OMAHA EPPLEY   CLEAR     80  74  81 S7        29.83S
BEATRICE       CLOUDY    75  70  82 CALM      29.86R
FALLS CITY     CLOUDY    81  71  71 S9        29.82F
NEBRASKA CITY  MOCLDY    76  72  85 S5        29.84S
PLATTSMOUTH    CLOUDY    77  73  88 CALM      29.84S
$$

NEZ044-045-051>053-067-240900-
OMAHA AREA

CITY           SKY/WX    TMP DP  RH WIND       PRES   REMARKS
OMAHA EPPLEY   CLEAR     80  74  81 S7        29.83S
BLAIR          CLEAR     77  73  87 S6        29.84S
FREMONT        CLEAR     77  72  84 W6        29.86R
MILLARD        CLEAR     78  75  89 CALM      29.83S
OFFUTT AFB     CLEAR     75  75 100 E2        29.83S
PLATTSMOUTH    CLOUDY    77  73  88 CALM      29.84S
WAHOO          FAIR      76  72  86 NW3       29.85R
$$




USA.gov is the U.S. government's official web portal to all federal, state and local government web resources and services.